Needles, CA

3:14 AM PDT on August 28, 2016 (GMT -0700)
Needles

Weather History for KEED - March, 2013

Change the Weather History Date:

Tuesday, March 19, 2013

  Actual Average Record
Temperature  
Mean Temperature 74 °F 65 °F  
Max Temperature 88 °F 78 °F 94 °F (1925)
Min Temperature 62 °F 52 °F 35 °F (1937)
Degree Days  
Heating Degree Days 0    
Cooling Degree Days 10    
Growing Degree Days 24 (Base 50)    
Moisture  
Dew Point 21 °F    
Average Humidity 14    
Maximum Humidity 24    
Minimum Humidity 8    
Precipitation  
Precipitation 0.00 in 0.02 in 0.96 in (1994)
Month to date precipitation 0.38  
Year to date precipitation 1.88  
Sea Level Pressure  
Sea Level Pressure 29.86 in    
Wind  
Wind Speed 4 mph (NNW)    
Max Wind Speed 12 mph    
Max Gust Speed -    
Visibility 10 miles    
Events      
T = Trace of Precipitation, MM = Missing Value Source: NWS Daily Summary

Daily Weather History Graph

Daily Weather History Graph

Search for Another Location

Airport or City:

Trip Planner

Search our weather history database for the weather conditions in past years. The results will help you decide how hot, cold, wet, or windy it might be!

Date:

Astronomy

Mar. 19, 2013 Rise Set
Actual Time 6:43 AM PDT 6:49 PM PDT
Civil Twilight 6:17 AM PDT 7:14 PM PDT
Nautical Twilight 5:48 AM PDT 7:44 PM PDT
Astronomical Twilight 5:18 AM PDT 8:13 PM PDT
Moon 11:50 AM PDT (3/19) 1:26 AM PDT (3/19)
Length of Visible Light 12h 56m
Length of Day
12h 06m
Waxing Crescent, 51% of the Moon is Illuminated
Mar 19
Waxing Crescent
Mar 27
Full
Apr 2
Last Quarter
Apr 10
New
Apr 18
First Quarter

Hourly Weather History & Observations

Time (PDT) Temp. Dew Point Humidity Pressure Visibility Wind Dir Wind Speed Gust Speed Precip Events Conditions
12:56 AM 70.0 °F 19.0 °F 14% 29.81 in 10.0 mi Calm Calm - N/A   Clear
1:56 AM 69.1 °F 19.9 °F 15% 29.80 in 10.0 mi South 3.5 mph - N/A   Clear
2:56 AM 69.1 °F 19.9 °F 15% 29.79 in 10.0 mi Calm Calm - N/A   Clear
3:56 AM 66.0 °F 19.9 °F 17% 29.78 in 10.0 mi NNW 4.6 mph - N/A   Clear
4:56 AM 64.9 °F 21.0 °F 19% 29.79 in 10.0 mi West 4.6 mph - N/A   Clear
5:56 AM 64.0 °F 19.9 °F 18% 29.82 in 10.0 mi Calm Calm - N/A   Clear
6:56 AM 62.1 °F 25.0 °F 24% 29.85 in 10.0 mi NW 5.8 mph - N/A   Clear
7:56 AM 66.0 °F 21.0 °F 18% 29.87 in 10.0 mi West 9.2 mph - N/A   Clear
8:56 AM 71.1 °F 26.1 °F 19% 29.89 in 10.0 mi ESE 4.6 mph - N/A   Clear
9:56 AM 73.9 °F 27.0 °F 18% 29.90 in 10.0 mi ENE 4.6 mph - N/A   Clear
10:56 AM 77.0 °F 21.0 °F 12% 29.91 in 10.0 mi North 5.8 mph - N/A   Clear
11:56 AM 80.1 °F 21.0 °F 11% 29.91 in 10.0 mi Variable 5.8 mph - N/A   Clear
12:56 PM 82.0 °F 24.1 °F 12% 29.89 in 10.0 mi North 9.2 mph - N/A   Clear
1:56 PM 82.0 °F 25.0 °F 12% 29.88 in 10.0 mi East 4.6 mph - N/A   Clear
2:56 PM 84.9 °F 21.9 °F 10% 29.86 in 10.0 mi Variable 4.6 mph - N/A   Clear
3:56 PM 87.1 °F 21.0 °F 9% 29.84 in 10.0 mi NE 4.6 mph - N/A   Clear
4:56 PM 87.1 °F 18.0 °F 8% 29.84 in 10.0 mi North 11.5 mph - N/A   Clear
5:56 PM 86.0 °F 18.0 °F 8% 29.83 in 10.0 mi NNE 8.1 mph - N/A   Clear
6:56 PM 82.0 °F 19.0 °F 10% 29.86 in 10.0 mi North 3.5 mph - N/A   Clear
7:56 PM 75.9 °F 19.9 °F 12% 29.88 in 10.0 mi NNW 4.6 mph - N/A   Clear
8:56 PM 73.0 °F 19.9 °F 14% 29.89 in 10.0 mi WSW 6.9 mph - N/A   Clear
9:56 PM 73.9 °F 19.0 °F 13% 29.91 in 10.0 mi West 8.1 mph - N/A   Clear
10:56 PM 70.0 °F 19.9 °F 15% 29.92 in 10.0 mi WSW 6.9 mph - N/A   Clear
11:56 PM 69.1 °F 21.0 °F 16% 29.91 in 10.0 mi WSW 4.6 mph - N/A   Clear